Weather History for KPOF - October, 2013

Change the Weather History Date:

Monday, October 21, 2013

  Actual Average Record
Temperature  
Mean Temperature 55 °F -  
Max Temperature 68 °F 68 °F 89 °F (1920)
Min Temperature 42 °F 41 °F 24 °F (1952)
Degree Days  
Heating Degree Days 10    
Growing Degree Days 5 (Base 50)    
Moisture  
Dew Point 46 °F    
Average Humidity 77    
Maximum Humidity 90    
Minimum Humidity 51    
Precipitation  
Precipitation 0.01 in - - ()
Sea Level Pressure  
Sea Level Pressure 30.02 in    
Wind  
Wind Speed 3 mph (WNW)    
Max Wind Speed 8 mph    
Max Gust Speed -    
Visibility 10 miles    
Events Rain    
Averages and records for this station are not official NWS values.
T = Trace of Precipitation, MM = Missing Value Source: NWS Daily Summary

Daily Weather History Graph

Daily Weather History Graph

Search for Another Location

Airport or City:

Trip Planner

Search our weather history database for the weather conditions in past years. The results will help you decide how hot, cold, wet, or windy it might be!

Date:

Astronomy

Oct. 21, 2013 Rise Set
Actual Time 7:14 AM CDT 6:16 PM CDT
Civil Twilight 6:48 AM CDT 6:42 PM CDT
Nautical Twilight 6:18 AM CDT 7:13 PM CDT
Astronomical Twilight 5:48 AM CDT 7:43 PM CDT
Moon 8:13 PM CDT (10/21) 9:46 AM CDT (10/21)
Length of Visible Light 11h 54m
Length of Day
11h 02m
Waning Gibbous, 92% of the Moon is Illuminated
Oct 21
Waning Gibbous
Oct 26
Last Quarter
Nov 3
New
Nov 9
First Quarter
Nov 17
Full

Hourly Weather History & Observations

Time (CDT) Temp. Windchill Dew Point Humidity Pressure Visibility Wind Dir Wind Speed Gust Speed Precip Events Conditions
12:53 AM 46.0 °F - 42.1 °F 86% 29.99 in 10.0 mi Calm Calm - N/A   Clear
1:53 AM 44.1 °F 42.5 °F 41.0 °F 89% 30.00 in 9.0 mi NNW 3.5 mph - N/A   Clear
2:53 AM 44.1 °F - 41.0 °F 89% 30.00 in 10.0 mi Calm Calm - N/A   Clear
3:53 AM 43.0 °F - 39.9 °F 89% 30.01 in 7.0 mi Calm Calm - N/A   Clear
4:53 AM 42.1 °F - 39.0 °F 89% 30.01 in 9.0 mi Calm Calm - N/A   Clear
5:53 AM 45.0 °F - 42.1 °F 90% 30.01 in 10.0 mi Calm Calm - N/A   Overcast
6:53 AM 46.0 °F - 43.0 °F 89% 30.01 in 10.0 mi Calm Calm - N/A   Overcast
7:53 AM 48.0 °F - 44.1 °F 86% 30.02 in 10.0 mi Calm Calm - N/A   Overcast
8:53 AM 51.1 °F - 46.9 °F 86% 30.02 in 10.0 mi Calm Calm - N/A   Mostly Cloudy
9:53 AM 55.9 °F - 48.0 °F 75% 30.03 in 10.0 mi SW 5.8 mph - N/A   Overcast
10:53 AM 62.1 °F - 50.0 °F 65% 30.02 in 10.0 mi WSW 4.6 mph - N/A   Overcast
11:53 AM 64.0 °F - 50.0 °F 60% 30.01 in 10.0 mi Variable 6.9 mph - N/A   Mostly Cloudy
12:53 PM 66.9 °F - 48.0 °F 51% 30.00 in 10.0 mi West 6.9 mph - N/A   Mostly Cloudy
1:53 PM 66.9 °F - 48.9 °F 52% 29.98 in 10.0 mi SSW 8.1 mph - N/A   Overcast
2:53 PM 68.0 °F - 50.0 °F 52% 29.98 in 10.0 mi SW 5.8 mph - N/A   Clear
3:53 PM 64.0 °F - 51.1 °F 63% 29.99 in 10.0 mi WNW 5.8 mph - 0.00 in Rain Light Rain
4:53 PM 60.1 °F - 52.0 °F 75% 30.01 in 10.0 mi WNW 5.8 mph - 0.00 in Rain Light Rain
5:53 PM 57.9 °F - 50.0 °F 75% 30.01 in 10.0 mi NW 8.1 mph - 0.00 in Rain Light Rain
6:53 PM 55.9 °F - 48.9 °F 77% 30.02 in 10.0 mi WNW 4.6 mph - 0.00 in Rain Light Rain
7:53 PM 55.0 °F - 48.9 °F 80% 30.04 in 10.0 mi West 3.5 mph - 0.01 in Rain Light Rain
8:53 PM 55.0 °F - 48.9 °F 80% 30.05 in 10.0 mi West 4.6 mph - 0.00 in   Overcast
9:53 PM 54.0 °F - 48.0 °F 80% 30.05 in 10.0 mi NW 5.8 mph - N/A   Mostly Cloudy
10:53 PM 53.1 °F - 46.9 °F 80% 30.06 in 10.0 mi NNW 6.9 mph - N/A   Overcast
11:53 PM 48.9 °F - 44.1 °F 83% 30.07 in 10.0 mi NNW 3.5 mph - N/A   Mostly Cloudy